Weather History for Michigan City, IN

Change the Weather History Date:

Saturday, November 23, 2013

  Actual Average (KVPZ) Record (KVPZ)
Temperature  
Mean Temperature 26 °F 37 °F  
Max Temperature 30 °F 44 °F 65 °F (2003)
Min Temperature 21 °F 30 °F 15 °F (2008)
Degree Days  
Heating Degree Days 40 28  
Month to date heating degree days 519  
Since 1 July heating degree days 1049  
Cooling Degree Days 0 0  
Month to date cooling degree days 0  
Year to date cooling degree days 713  
Moisture  
Dew Point 15 °F    
Average Humidity 64    
Maximum Humidity 86    
Minimum Humidity 43    
Precipitation  
Precipitation 0.00 in 0.10 in 0.78 in (2003)
Month to date precipitation 2.62  
Year to date precipitation 34.62  
Sea Level Pressure  
Sea Level Pressure 30.50 in    
Wind  
Wind Speed 10 mph (NW)    
Max Wind Speed 20 mph    
Max Gust Speed 29 mph    
Visibility 9 miles    
Events Snow    
T = Trace of Precipitation, MM = Missing Value Source: NWS Daily Summary

Daily Weather History Graph

Daily Weather History Graph

Search for Another Location

Airport:

Trip Planner

Search our weather history database for the weather conditions in past years. The results will help you decide how hot, cold, wet, or windy it might be!

Date:

Astronomy

Nov. 23, 2013 Rise Set
Actual Time 6:46 AM CST 4:20 PM CST
Civil Twilight 6:15 AM CST 4:51 PM CST
Nautical Twilight 5:41 AM CST 5:25 PM CST
Astronomical Twilight 5:08 AM CST 5:58 PM CST
Moon 9:51 PM CST (11/23) 11:01 AM CST (11/23)
Length of Visible Light 10h 35m
Length of Day
9h 34m
Waning Gibbous, 69% of the Moon is Illuminated
Nov 23
Waning Gibbous
Nov 25
Last Quarter
Dec 2
New
Dec 9
First Quarter
Dec 17
Full

Hourly Weather History & Observations

Time (CST) Temp. Windchill Dew Point Humidity Pressure Visibility Wind Dir Wind Speed Gust Speed Precip Events Conditions
12:15 AM 28.4 °F 22.2 °F 23.0 °F 80% 30.42 in 10.0 mi SW 5.8 mph - N/A   Clear
12:35 AM 28.4 °F 22.2 °F 23.0 °F 80% 30.42 in 10.0 mi SW 5.8 mph - N/A   Clear
12:55 AM 28.4 °F 22.2 °F 23.0 °F 80% 30.41 in 10.0 mi SW 5.8 mph - N/A   Clear
1:15 AM 26.6 °F 21.2 °F 23.0 °F 86% 30.41 in 10.0 mi SW 4.6 mph - N/A   Clear
1:35 AM 26.6 °F 20.0 °F 23.0 °F 86% 30.41 in 10.0 mi SW 5.8 mph - N/A   Clear
1:55 AM 26.6 °F 21.2 °F 23.0 °F 86% 30.41 in 10.0 mi SW 4.6 mph - N/A   Clear
2:15 AM 26.6 °F 21.2 °F 23.0 °F 86% 30.41 in 10.0 mi SW 4.6 mph - N/A   Clear
2:35 AM 26.6 °F 21.2 °F 21.2 °F 80% 30.41 in 10.0 mi WSW 4.6 mph - N/A   Clear
2:55 AM 30.2 °F 21.9 °F 19.4 °F 64% 30.40 in 10.0 mi WNW 9.2 mph - N/A   Clear
3:15 AM 30.2 °F 24.3 °F 19.4 °F 64% 30.40 in 10.0 mi WNW 5.8 mph - N/A   Clear
3:35 AM 30.2 °F 23.4 °F 19.4 °F 64% 30.39 in 10.0 mi WNW 6.9 mph - N/A   Clear
3:55 AM 30.2 °F 21.9 °F 19.4 °F 64% 30.39 in 10.0 mi WNW 9.2 mph 17.3 mph N/A   Clear
4:15 AM 30.2 °F 22.6 °F 19.4 °F 64% 30.39 in 10.0 mi WNW 8.1 mph - N/A   Clear
4:35 AM 30.2 °F 24.3 °F 19.4 °F 64% 30.39 in 10.0 mi WNW 5.8 mph - N/A   Clear
4:55 AM 30.2 °F 21.9 °F 19.4 °F 64% 30.39 in 10.0 mi WNW 9.2 mph - N/A   Clear
5:15 AM 30.2 °F 22.6 °F 21.2 °F 69% 30.39 in 10.0 mi WNW 8.1 mph - N/A   Clear
5:35 AM 30.2 °F 21.9 °F 21.2 °F 69% 30.39 in 10.0 mi NW 9.2 mph 23.0 mph N/A   Mostly Cloudy
5:55 AM 30.2 °F 19.3 °F 21.2 °F 69% 30.40 in 10.0 mi NW 15.0 mph 20.7 mph N/A   Overcast
6:15 AM 30.2 °F 19.3 °F 19.4 °F 64% 30.40 in 10.0 mi NW 15.0 mph 20.7 mph N/A   Overcast
6:35 AM 30.2 °F 19.3 °F 19.4 °F 64% 30.40 in 10.0 mi NW 15.0 mph 21.9 mph N/A   Overcast
6:55 AM 30.2 °F 20.8 °F 19.4 °F 64% 30.40 in 10.0 mi NNW 11.5 mph 20.7 mph N/A   Overcast
7:15 AM 30.2 °F 18.9 °F 19.4 °F 64% 30.41 in 10.0 mi NNW 16.1 mph 24.2 mph N/A   Overcast
7:35 AM 30.2 °F 18.9 °F 17.6 °F 60% 30.41 in 10.0 mi NW 16.1 mph 24.2 mph N/A   Overcast
7:55 AM 30.2 °F 21.3 °F 17.6 °F 60% 30.42 in 10.0 mi NNW 10.4 mph 20.7 mph N/A   Overcast
8:15 AM 30.2 °F 20.8 °F 17.6 °F 60% 30.43 in 10.0 mi NW 11.5 mph 23.0 mph N/A   Overcast
8:35 AM 28.4 °F 17.0 °F 17.6 °F 64% 30.44 in 10.0 mi NW 15.0 mph 20.7 mph N/A   Overcast
8:55 AM 28.4 °F 17.0 °F 15.8 °F 59% 30.45 in 10.0 mi NW 15.0 mph 23.0 mph N/A   Overcast
9:15 AM 28.4 °F 18.0 °F 15.8 °F 59% 30.46 in 10.0 mi NNW 12.7 mph 24.2 mph N/A   Overcast
9:35 AM 28.4 °F 16.6 °F 14.0 °F 55% 30.48 in 10.0 mi NW 16.1 mph 25.3 mph N/A   Overcast
9:55 AM 28.4 °F 17.5 °F 14.0 °F 55% 30.49 in 10.0 mi NNW 13.8 mph 26.5 mph N/A   Overcast
10:15 AM 28.4 °F 16.2 °F 14.0 °F 55% 30.49 in 10.0 mi NNW 17.3 mph 24.2 mph N/A   Overcast
10:35 AM 28.4 °F 15.8 °F 14.0 °F 55% 30.49 in 10.0 mi NNW 18.4 mph 28.8 mph N/A   Overcast
10:55 AM 26.6 °F 13.8 °F 12.2 °F 55% 30.50 in 10.0 mi North 17.3 mph 25.3 mph N/A   Overcast
11:15 AM 26.6 °F 16.2 °F 12.2 °F 55% 30.50 in 10.0 mi NNW 11.5 mph 24.2 mph N/A   Overcast
11:35 AM 26.6 °F 14.3 °F 12.2 °F 55% 30.50 in 7.0 mi NNW 16.1 mph 27.6 mph N/A Snow Light Snow
11:55 AM 26.6 °F 13.4 °F 10.4 °F 51% 30.50 in 10.0 mi NNW 18.4 mph 26.5 mph N/A   Overcast
12:15 PM 26.6 °F 14.7 °F 12.2 °F 55% 30.50 in 10.0 mi NW 15.0 mph 24.2 mph N/A   Overcast
12:35 PM 26.6 °F 13.4 °F 14.0 °F 59% 30.50 in 7.0 mi NW 18.4 mph 26.5 mph N/A Snow Light Snow
12:55 PM 24.8 °F 14.0 °F 15.8 °F 69% 30.51 in 3.0 mi NNW 11.5 mph 25.3 mph N/A Snow Light Snow
1:15 PM 26.6 °F 15.2 °F 14.0 °F 59% 30.50 in 7.0 mi NNW 13.8 mph 26.5 mph N/A   Overcast
1:35 PM 24.8 °F 12.4 °F 14.0 °F 64% 30.51 in 7.0 mi NNW 15.0 mph 24.2 mph N/A Snow Light Snow
1:55 PM 24.8 °F 12.4 °F 12.2 °F 59% 30.52 in 10.0 mi North 15.0 mph 26.5 mph N/A   Overcast
2:15 PM 24.8 °F 14.6 °F 14.0 °F 64% 30.53 in 7.0 mi NNW 10.4 mph 21.9 mph N/A Snow Light Snow
2:35 PM 24.8 °F 11.5 °F 12.2 °F 59% 30.54 in 7.0 mi NNW 17.3 mph 26.5 mph N/A Snow Light Snow
2:55 PM 24.8 °F 11.9 °F 12.2 °F 59% 30.55 in 10.0 mi NNW 16.1 mph 25.3 mph N/A Snow Light Snow
3:15 PM 24.8 °F 13.4 °F 14.0 °F 64% 30.55 in 5.0 mi North 12.7 mph 20.7 mph N/A Snow Light Snow
3:35 PM 24.8 °F 10.7 °F 10.4 °F 54% 30.56 in 10.0 mi NNW 19.6 mph 25.3 mph N/A   Overcast
3:55 PM 24.8 °F 12.4 °F 10.4 °F 54% 30.56 in 10.0 mi NNW 15.0 mph 26.5 mph N/A   Overcast
4:15 PM 23.0 °F 10.6 °F 12.2 °F 63% 30.56 in 7.0 mi NNW 13.8 mph 25.3 mph N/A Snow Light Snow
4:35 PM 24.8 °F 12.9 °F 10.4 °F 54% 30.57 in 10.0 mi NW 13.8 mph 26.5 mph N/A   Overcast
4:55 PM 24.8 °F 12.4 °F 12.2 °F 59% 30.57 in 7.0 mi NNW 15.0 mph 25.3 mph N/A Snow Light Snow
5:15 PM 23.0 °F 11.7 °F 12.2 °F 63% 30.58 in 10.0 mi NNW 11.5 mph 21.9 mph N/A Snow Light Snow
5:35 PM 24.8 °F 11.9 °F 10.4 °F 54% 30.58 in 10.0 mi NNW 16.1 mph 24.2 mph N/A   Overcast
5:55 PM 24.8 °F 11.9 °F 10.4 °F 54% 30.59 in 10.0 mi NNW 16.1 mph 24.2 mph N/A   Overcast
6:15 PM 24.8 °F 11.9 °F 8.6 °F 50% 30.60 in 10.0 mi NNW 16.1 mph 27.6 mph N/A   Overcast
6:35 PM 24.8 °F 12.9 °F 5.0 °F 43% 30.60 in 10.0 mi NNW 13.8 mph 24.2 mph N/A   Overcast
6:55 PM 24.8 °F 16.9 °F 8.6 °F 50% 30.60 in 10.0 mi NW 6.9 mph 18.4 mph N/A   Overcast
7:15 PM 24.8 °F 13.4 °F 10.4 °F 54% 30.60 in 10.0 mi NNW 12.7 mph 18.4 mph N/A   Overcast
7:35 PM 23.0 °F 9.6 °F 10.4 °F 59% 30.61 in 7.0 mi North 16.1 mph 24.2 mph N/A   Overcast
7:55 PM 23.0 °F 10.1 °F 10.4 °F 59% 30.60 in 10.0 mi NNW 15.0 mph 26.5 mph N/A   Overcast
8:15 PM 23.0 °F 10.1 °F 14.0 °F 68% 30.60 in 7.0 mi NNW 15.0 mph 23.0 mph N/A Snow Light Snow
8:35 PM 23.0 °F 9.6 °F 14.0 °F 68% 30.60 in 7.0 mi NNW 16.1 mph 21.9 mph N/A Snow Light Snow
8:55 PM 23.0 °F 12.4 °F 14.0 °F 68% 30.60 in 7.0 mi NNW 10.4 mph 21.9 mph N/A Snow Light Snow
9:15 PM 23.0 °F 11.7 °F 14.0 °F 68% 30.61 in 7.0 mi NNW 11.5 mph 19.6 mph N/A Snow Light Snow
9:35 PM 23.0 °F 13.1 °F 15.8 °F 74% 30.61 in 4.0 mi NNW 9.2 mph 18.4 mph N/A Snow Light Snow
9:55 PM 23.0 °F 12.4 °F 15.8 °F 74% 30.61 in 2.5 mi NNW 10.4 mph 20.7 mph N/A Snow Light Snow
10:15 PM 23.0 °F 13.1 °F 15.8 °F 74% 30.62 in 2.5 mi NNW 9.2 mph 20.7 mph N/A Snow Light Snow
10:35 PM 23.0 °F 11.1 °F 14.0 °F 68% 30.62 in 3.0 mi NNW 12.7 mph 21.9 mph N/A Snow Light Snow
10:55 PM 23.0 °F 13.9 °F 14.0 °F 68% 30.62 in 5.0 mi NNW 8.1 mph 19.6 mph N/A Snow Light Snow
11:15 PM 23.0 °F 10.1 °F 14.0 °F 68% 30.62 in 5.0 mi NW 15.0 mph 20.7 mph N/A Snow Light Snow
11:35 PM 21.2 °F 9.5 °F 14.0 °F 74% 30.62 in 3.0 mi NNW 11.5 mph 21.9 mph N/A Snow Light Snow
11:55 PM 21.2 °F 10.1 °F 14.0 °F 74% 30.61 in 4.0 mi NW 10.4 mph 20.7 mph N/A Snow Light Snow